Weather History for Kingston / Norman Manley, Jamaica

Change the Weather History Date:

Saturday, December 8, 2012

  Actual Average Record
Temperature  
Mean Temperature 82 °F -  
Max Temperature 88 °F 84 °F - ()
Min Temperature 77 °F 75 °F - ()
Cooling Degree Days 18    
Growing Degree Days 32 (Base 50)    
Moisture  
Dew Point 75 °F    
Average Humidity 77    
Maximum Humidity 89    
Minimum Humidity 69    
Precipitation  
Precipitation 0.04 in - - ()
Sea Level Pressure  
Sea Level Pressure 29.88 in    
Wind  
Wind Speed 11 mph ()    
Max Wind Speed 22 mph    
Max Gust Speed -    
Visibility 7.5 miles    
Events Rain    
T = Trace of Precipitation, MM = Missing Value Source: Averaged Metar Reports

Daily Weather History Graph

Daily Weather History Graph

Search for Another Location

Airport:

Trip Planner

Search our weather history database for the weather conditions in past years. The results will help you decide how hot, cold, wet, or windy it might be!

Date:

Astronomy

Dec. 08, 2012 Rise Set
Actual Time 6:26 AM EST 5:31 PM EST
Civil Twilight 6:03 AM EST 5:55 PM EST
Nautical Twilight 5:36 AM EST 6:22 PM EST
Astronomical Twilight 5:09 AM EST 6:49 PM EST
Moon 1:25 AM EST (12/8) 1:29 PM EST (12/8)
Length of Visible Light 11h 52m
Length of Day
11h 05m
Waning Crescent, 28% of the Moon is Illuminated
Dec 8
Waning Crescent
Dec 13
New
Dec 20
First Quarter
Dec 28
Full
Jan 4
Last Quarter

Hourly Weather History & Observations

Time (EST) Temp. Heat Index Dew Point Humidity Pressure Visibility Wind Dir Wind Speed Gust Speed Precip Events Conditions
12:00 AM 78.8 °F - 71.6 °F 78% 29.86 in 6.2 mi East 460.3 mph - N/A   Mostly Cloudy
1:00 AM 78 °F - 73 °F 79% 29.88 in 12 mi Calm Calm - -   Mostly Cloudy
1:00 AM 78.8 °F - 73.4 °F 83% 29.86 in 6.2 mi North 9.2 mph - N/A   Mostly Cloudy
3:00 AM 77.0 °F - 71.6 °F 83% 29.83 in 6.2 mi NW 8.1 mph - N/A   Mostly Cloudy
4:00 AM 77 °F - 73 °F 83% 29.83 in 12 mi NW 8.1 mph - -   Mostly Cloudy
4:00 AM 77.0 °F - 73.4 °F 89% 29.83 in 6.2 mi NW 8.1 mph - N/A   Mostly Cloudy
5:00 AM 77.0 °F - 71.6 °F 83% 29.83 in 6.2 mi NW 5.8 mph - N/A   Mostly Cloudy
6:00 AM 77.0 °F - 71.6 °F 83% 29.83 in 6.2 mi SW 3.5 mph - N/A   Mostly Cloudy
7:00 AM 80 °F - 73 °F 73% 29.86 in 12 mi ESE 12.7 mph - -   Mostly Cloudy
7:00 AM 80.6 °F 85.4 °F 73.4 °F 79% 29.86 in 6.2 mi ESE 12.7 mph - N/A   Scattered Clouds
8:00 AM 80.6 °F 85.4 °F 73.4 °F 79% 29.86 in 6.2 mi East 9.2 mph - N/A   Mostly Cloudy
9:00 AM 80.6 °F 85.4 °F 73.4 °F 79% 29.95 in 6.2 mi ESE 9.2 mph - N/A Rain Light Rain Showers
10:00 AM 82 °F - 76 °F 76% 29.95 in 12 mi ESE 12.7 mph - - Rain Light Rain Showers
10:00 AM 82.4 °F 89.5 °F 75.2 °F 79% 29.95 in 6.2 mi ESE 12.7 mph - N/A   Scattered Clouds
11:00 AM 84.2 °F 94.1 °F 77.0 °F 79% 29.92 in 6.2 mi ESE 19.6 mph - N/A   Scattered Clouds
12:00 PM 84.2 °F 92.3 °F 75.2 °F 74% 29.89 in 6.2 mi ESE 21.9 mph - N/A   Partly Cloudy
1:00 PM 88 °F - 80 °F 70% 29.88 in 6 mi SSE 19.6 mph - -   Partly Cloudy
1:00 PM 87.8 °F 102.5 °F 78.8 °F 75% 29.86 in 6.2 mi SSE 19.6 mph - N/A   Partly Cloudy
2:00 PM 86.0 °F 96.9 °F 77.0 °F 74% 29.86 in 6.2 mi SE 19.6 mph - N/A   Partly Cloudy
3:00 PM 84.2 °F 94.1 °F 77.0 °F 79% 29.86 in 6.2 mi SE 18.4 mph - N/A   Partly Cloudy
4:00 PM 84 °F - 76 °F 71% 29.87 in 9 mi ESE 15.0 mph - -   Haze
4:00 PM 84.2 °F 94.1 °F 77.0 °F 79% 29.86 in 6.2 mi ESE 15.0 mph - N/A   Partly Cloudy
5:00 PM 86.0 °F 95.1 °F 75.2 °F 70% 29.86 in 6.2 mi SE 17.3 mph - N/A   Partly Cloudy
7:00 PM 83 °F - 76 °F 75% 29.87 in 12 mi SE 18.4 mph - -   Haze
7:00 PM 84.2 °F 94.1 °F 77.0 °F 79% 29.86 in 6.2 mi SE 18.4 mph - N/A   Partly Cloudy
8:00 PM 82.4 °F 88.2 °F 73.4 °F 74% 29.92 in 6.2 mi East 12.7 mph - N/A   Scattered Clouds
9:00 PM 82.4 °F 88.2 °F 73.4 °F 74% 29.95 in 6.2 mi ESE 12.7 mph - N/A   Mostly Cloudy
10:00 PM 82 °F - 73 °F 69% 29.97 in 12 mi ESE 12.7 mph - -   Haze
10:00 PM 82.4 °F 88.2 °F 73.4 °F 74% 29.95 in 6.2 mi ESE 12.7 mph - N/A   Mostly Cloudy
11:00 PM 80.6 °F 85.4 °F 73.4 °F 79% 29.95 in - East 18.4 mph - N/A   Mostly Cloudy